カタログに戻る

STARLINK-4644

運用中通信VLEO
NORAD 53719·PAYLOAD·🇺🇸 United States

打ち上げ Sep 5, 2022 から Cape Canaveral Space Force Station

Loading…

次のパス (今後24時間)

TLE

最新Source: CelesTrak SupGP

元期: Sep 14, 2026, 22:10 UTC

1 53719C 22107V   26257.92409722  .00038771  00000+0  11456-2 0  2575
2 53719  53.1577  87.8763 0001244  82.9213 118.9793 15.34367758    18

AllMySatでSTARLINK-4644をリアルタイム追跡

Download on the App Store